TimePDT,TemperatureF,Dew PointF,Humidity,Sea Level PressureIn,VisibilityMPH,Wind Direction,Wind SpeedMPH,Gust SpeedMPH,PrecipitationIn,Events,Conditions,WindDirDegrees,DateUTC
12:56 AM,78.1,43.0,29,29.97,10.0,WNW,5.8,-,N/A,,Clear,300,2013-08-30 07:56:00
1:56 AM,79.0,50.0,36,29.96,10.0,WNW,9.2,-,N/A,,Clear,290,2013-08-30 08:56:00
2:56 AM,79.0,53.1,40,29.95,10.0,WNW,10.4,-,N/A,,Clear,300,2013-08-30 09:56:00
3:56 AM,77.0,54.0,45,29.95,10.0,WNW,11.5,-,N/A,,Clear,300,2013-08-30 10:56:00
4:56 AM,75.9,54.0,46,29.96,10.0,WNW,10.4,-,N/A,,Clear,300,2013-08-30 11:56:00
5:56 AM,73.0,52.0,48,29.98,10.0,Calm,Calm,-,N/A,,Clear,0,2013-08-30 12:56:00
6:56 AM,71.1,48.9,45,30.00,10.0,Calm,Calm,-,N/A,,Clear,0,2013-08-30 13:56:00
7:56 AM,75.9,52.0,43,30.01,10.0,Calm,Calm,-,N/A,,Clear,0,2013-08-30 14:56:00
8:56 AM,82.0,51.1,34,30.01,10.0,Calm,Calm,-,N/A,,Clear,0,2013-08-30 15:56:00
9:56 AM,88.0,51.1,28,30.01,10.0,Calm,Calm,-,N/A,,Clear,0,2013-08-30 16:56:00
10:56 AM,91.9,52.0,26,30.00,10.0,Variable,4.6,-,N/A,,Clear,0,2013-08-30 17:56:00
11:56 AM,95.0,52.0,23,29.99,10.0,NE,5.8,-,N/A,,Clear,40,2013-08-30 18:56:00
12:56 PM,96.1,54.0,24,29.96,10.0,Variable,4.6,-,N/A,,Clear,0,2013-08-30 19:56:00
1:56 PM,98.1,55.0,24,29.93,10.0,SE,6.9,-,N/A,,Clear,140,2013-08-30 20:56:00
2:56 PM,97.0,55.9,25,29.90,10.0,SSW,9.2,-,N/A,,Mostly Cloudy,200,2013-08-30 21:56:00
3:56 PM,97.0,60.1,29,29.89,10.0,SW,19.6,27.6,N/A,,Clear,230,2013-08-30 22:56:00
4:56 PM,93.9,62.1,35,29.89,10.0,WSW,26.5,32.2,N/A,,Clear,240,2013-08-30 23:56:00
5:56 PM,90.0,62.1,39,29.91,10.0,SW,20.7,29.9,N/A,,Clear,220,2013-08-31 00:56:00
6:56 PM,86.0,63.0,46,29.93,10.0,WSW,23.0,28.8,N/A,,Clear,240,2013-08-31 01:56:00
7:56 PM,82.9,63.0,51,29.94,10.0,WSW,20.7,28.8,N/A,,Clear,240,2013-08-31 02:56:00
8:56 PM,82.0,63.0,52,29.96,10.0,WSW,19.6,26.5,N/A,,Scattered Clouds,240,2013-08-31 03:56:00
9:56 PM,82.0,63.0,52,29.97,10.0,WSW,15.0,26.5,N/A,,Clear,240,2013-08-31 04:56:00
10:56 PM,81.0,62.1,52,29.96,10.0,WSW,19.6,-,N/A,,Clear,250,2013-08-31 05:56:00
11:56 PM,81.0,63.0,54,29.96,10.0,WSW,16.1,23.0,N/A,,Clear,240,2013-08-31 06:56:00